sat.trackr.live / text

‹ back to catalog

STARLINK-32702

NORAD 62432 · 2024-251A

PAYLOAD ACTIVE UNKNOWN

§ Identity

Operator
Country
US
Launch date
2024-12-29
Launch site
AFWTR
Launch vehicle
Mass (kg)
RCS (m²)

Purposes: comms

External: N2YO · Heavens-Above · Gunter

§ Orbital elements

Epoch: 2026-05-24T22:39:48.278592Z

Period
94.11 min
Inclination
53.1604°
Eccentricity
0.0001065
Mean motion
15.30205609 rev/d
Perigee alt
474.5 km
Apogee alt
475.9 km
Semi-major
6,853.3 km
B*
9.7625e-4
RAAN
338.2494°
Arg perigee
88.2600°
Mean anomaly
271.8523°
Rev number
7,966

§ Raw data

STARLINK-327021 62432U 24251A   26144.94430878  .00028671  00000+0  97625-3 0  99962 62432  53.1604 338.2494 0001065  88.2600 271.8523 15.30205609 79664

JSON: /api/v1/satellites/62432 · /tle

For live sub-satellite position, see the globe view (requires WebGL).

§ Visibility from observer

Set your observer location to see the next 7 days of passes ≥ 10°. The values pass through the URL so the page stays shareable.

No JS? Fill the form by hand. The geolocation button needs JavaScript.